sat.trackr.live / text

‹ back to catalog

KUIPER-00606

NORAD 69289 · 2026-118Y

PAYLOAD ACTIVE UNKNOWN

§ Identity

Operator
Country
US
Launch date
2026-05-29
Launch site
AFETR
Launch vehicle
Mass (kg)
RCS (m²)

External: N2YO · Heavens-Above · Gunter

§ Orbital elements

Epoch: 2026-09-20T04:12:37.615968Z

Period
97.30 min
Inclination
51.9028°
Eccentricity
0.0000331
Mean motion
14.79927733 rev/d
Perigee alt
629.3 km
Apogee alt
629.8 km
Semi-major
7,007.7 km
B*
2.7266e-4
RAAN
335.6304°
Arg perigee
87.3727°
Mean anomaly
272.7273°
Rev number
1,829

§ Raw data

KUIPER-006061 69289U 26118Y   26263.17543537  .00001858  00000+0  27266-3 0  99932 69289  51.9028 335.6304 0000331  87.3727 272.7273 14.79927733 18298

JSON: /api/v1/satellites/69289 · /tle

For live sub-satellite position, see the globe view (requires WebGL).

§ Visibility from observer

Set your observer location to see the next 7 days of passes ≥ 10°. The values pass through the URL so the page stays shareable.

No JS? Fill the form by hand. The geolocation button needs JavaScript.